Ireland West Airport Knock, Ireland

2:05 AM IST on May 25, 2017 (GMT +0100)
Connaught

Weather History for EIKN - November, 2012

Change the Weather History Date:

Sunday, November 25, 2012

  Actual Average Record
Temperature  
Mean Temperature 32 °F -  
Max Temperature 35 °F - - ()
Min Temperature 30 °F - - ()
Degree Days  
Heating Degree Days 32    
Moisture  
Dew Point 33 °F    
Average Humidity 98    
Maximum Humidity 100    
Minimum Humidity 93    
Precipitation  
Precipitation 0.00 in - - ()
Sea Level Pressure  
Sea Level Pressure 29.54 in    
Wind  
Wind Speed 5 mph ()    
Max Wind Speed 8 mph    
Max Gust Speed -    
Visibility 1.5 miles    
Events Fog    
T = Trace of Precipitation, MM = Missing Value Source: Averaged Metar Reports

Daily Weather History Graph

Daily Weather History Graph

Search for Another Location

Airport or City:

Trip Planner

Search our weather history database for the weather conditions in past years. The results will help you decide how hot, cold, wet, or windy it might be!

Date:

Astronomy

Nov. 25, 2012 Rise Set
Actual Time 8:21 AM GMT 4:23 PM GMT
Civil Twilight 7:39 AM GMT 5:04 PM GMT
Nautical Twilight 6:55 AM GMT 5:48 PM GMT
Astronomical Twilight 6:13 AM GMT 6:30 PM GMT
Moon 2:49 PM GMT 5:02 AM GMT
Length of Visible Light 9h 24m
Length of Day
8h 01m
Waxing Gibbous, 91% of the Moon is Illuminated
Nov 25
Waxing Gibbous
Nov 28
Full
Dec 6
Last Quarter
Dec 13
New
Dec 20
First Quarter

Hourly Weather History & Observations

Time (GMT) Temp. Windchill Dew Point Humidity Pressure Visibility Wind Dir Wind Speed Gust Speed Precip Events Conditions
12:00 AM 33 °F - 32 °F 96% 29.66 in - WSW 4.5 mph - -  
6:00 AM 31 °F - 31 °F 99% 29.57 in - SE 4.5 mph - -  
8:00 AM 30.2 °F 24.3 °F 30.2 °F 100% 29.53 in 6.2 mi SSE 5.8 mph - N/A Fog Shallow Fog
8:30 AM 30.2 °F 24.3 °F 30.2 °F 100% 29.53 in 2.8 mi SSE 5.8 mph - N/A   Scattered Clouds
9:00 AM 30.2 °F 24.3 °F 30.2 °F 100% 29.53 in 0.2 mi SE 5.8 mph - N/A Fog Fog
9:30 AM 30.2 °F 25.4 °F 30.2 °F 100% 29.53 in 0.3 mi ESE 4.6 mph - N/A Fog Fog
10:00 AM 32.0 °F 27.5 °F 32.0 °F 100% 29.53 in 0.2 mi East 4.6 mph - N/A   Scattered Clouds
10:30 AM 32.0 °F 27.5 °F 32.0 °F 100% 29.53 in 0.1 mi ESE 4.6 mph - N/A Fog Fog
11:00 AM 32.0 °F 28.7 °F 32.0 °F 100% 29.53 in 0.2 mi ESE 3.5 mph - N/A Fog Fog
11:30 AM 35.6 °F 30.7 °F 33.8 °F 93% 29.53 in 3.1 mi East 5.8 mph - N/A   Mostly Cloudy
12:00 PM 33 °F - 33 °F 99% 29.58 in 3 mi East 4.5 mph - - Fog Light Fog
12:00 PM 33.8 °F 29.6 °F 33.8 °F 100% 29.53 in 3.1 mi East 4.6 mph - N/A   Mostly Cloudy
12:30 PM 33.8 °F 29.6 °F 33.8 °F 100% 29.53 in 0.2 mi NNE 4.6 mph - N/A Fog Fog
1:00 PM 33.8 °F 28.6 °F 33.8 °F 100% 29.53 in 0.2 mi NNE 5.8 mph - N/A Fog Fog
1:30 PM 33.8 °F 29.6 °F 32.0 °F 93% 29.53 in 0.1 mi NNE 4.6 mph - N/A Fog Fog
2:00 PM 33.8 °F 27.7 °F 32.0 °F 93% 29.53 in 0.1 mi NNE 6.9 mph - N/A Fog Fog
2:30 PM 32.0 °F 25.6 °F 32.0 °F 100% 29.53 in 0.1 mi North 6.9 mph - N/A Fog Fog
3:00 PM 33.8 °F 27.7 °F 33.8 °F 100% 29.53 in 0.1 mi North 6.9 mph - N/A Fog Fog
3:30 PM 33.8 °F 28.6 °F 32.0 °F 93% 29.53 in 0.1 mi North 5.8 mph - N/A Fog Fog
4:00 PM 33.8 °F 27.7 °F 33.8 °F 100% 29.53 in 0.1 mi NNE 6.9 mph - N/A Fog Fog
4:30 PM 35.6 °F 29.2 °F 33.8 °F 93% 29.53 in 0.1 mi NNE 8.1 mph - N/A Fog Fog
5:00 PM 35.6 °F 29.2 °F 35.6 °F 100% 29.53 in 0.2 mi NNE 8.1 mph - N/A Fog Fog
6:00 PM 35 °F - 35 °F 100% 29.60 in 7 mi North 6.7 mph - - Fog Light Fog
6:00 PM 35.6 °F 29.9 °F 35.6 °F 100% 29.56 in 6.2 mi North 6.9 mph - N/A   Mostly Cloudy
7:00 PM 33.8 °F 27.7 °F 33.8 °F 100% 29.56 in 1.4 mi North 6.9 mph - N/A   Mostly Cloudy